Location: Tamazert
(32.6352°N, 5.2072°W)
Time: 05:04:27
(UTC+00:00)

Vanguard 2 Rocket - Pass Details

Date: 09 October 2022
Orbit: 555 x 3321 km, 32.9° (Epoch: 04 December)

Event Time Altitude Azimuth Distance (km) Brightness Sun altitude
Rises 23:13:05 0° 268° (W) 7,128 11.6 -60.9°
Reaches altitude 10° 23:18:16 10° 269° (W) 5,881 11.1 -61.5°
Enters shadow 23:24:18 25° 270° (W) 4,356 10.3 -62.0°
Maximum altitude 23:35:23 88° 1° (N) 2,086 - -62.8°
Drops below altitude 10° 23:44:57 10° 92° (E) 3,511 - -63.4°
Sets 23:47:17 0° 92° (E) 4,211 - -63.5°
